User: anonymous   Login
Location: Peebles
(55.6412°N, 3.1714°W)
Time: 15:41:25
(UTC+01:00)
Language:

KEPLER-1 (CASE) - Orbit

View from above orbital plane
View from above orbital plane
View from above satellite
View from above satellite

Ground track
Ground track

The orbit data is extracted from the following two-line orbital elements,

1 43729U 18096L   22278.76973184  .00061113  00000-0  13499-2 0  9995
2 43729  97.3527   2.4302 0011464  19.3812 340.7870 15.43582978215123
Epoch (UTC): 05 October 2022 18:28:24
Eccentricity: 0.0011464
inclination: 97.3527°
perigee height: 428 km
apogee height: 443 km
right ascension of ascending node: 2.4302°
argument of perigee: 19.3812°
revolutions per day: 15.43582978
mean anomaly at epoch: 340.7870°
orbit number at epoch: 21512

The dashed part of the orbit path shows where the satellite is in the earth's shadow,  

DLR